Location: Goettingen
(51.5300°N, 9.9433°E)
Time: 18:23:09
(UTC+02:00)

ISS - Pass Details

Date: 14 May 2026
Orbit: 414 x 424 km, 51.6° (Epoch: 13 May)

Event Time Altitude Azimuth Distance (km) Brightness Sun altitude
Rises 00:56:30 0° 283° (WNW) 2,356 0.3 -19.8°
Reaches altitude 10° 00:58:38 10° 278° (W) 1,492 -0.8 -19.8°
Enters shadow 01:00:22 27° 265° (W) 847 -2.3 -19.8°
